Location: Majestic Skies Ranch
(34.0000°N, 105.9300°W)
Time: 22:24:16
(UTC-07:00)

ISS - Visible Passes

Search period start: 25 February 2017 00:00
Search period end: 07 March 2017 00:00
Orbit: 399 x 408 km, 51.6° (Epoch: 26 February)

Date Brightness Start Highest point End Pass type
(mag) Time Alt. Az. Time Alt. Az. Time Alt. Az.
27 Feb -0.6 05:44:53 10° S 05:47:22 20° SE 05:49:52 10° E visible
01 Mar -2.7 05:35:20 10° SSW 05:38:33 58° SE 05:41:48 10° NE visible
02 Mar -1.4 04:45:26 23° SSE 04:46:07 25° SE 04:48:54 10° ENE visible
03 Mar -3.0 05:28:20 26° W 05:29:51 47° NW 05:33:03 10° NE visible
04 Mar -2.0 04:38:20 39° ENE 04:38:20 39° ENE 04:40:33 10° NE visible
05 Mar -1.7 05:20:50 20° NW 05:21:15 21° NNW 05:23:49 10° NNE visible
06 Mar -0.9 04:30:32 18° NNE 04:30:32 18° NNE 04:31:36 10° NNE visible
